Year,Month,Day,Hour,Minute,Value (Times are PST for temperature in C)
2019,06,07,00,00,11.20
2019,06,07,00,01,11.20
2019,06,07,00,02,11.20
2019,06,07,00,03,11.20
2019,06,07,00,04,11.20
2019,06,07,00,05,11.20
2019,06,07,00,06,11.20
2019,06,07,00,07,11.20
2019,06,07,00,08,11.10
2019,06,07,00,09,11.10
2019,06,07,00,10,11.10
2019,06,07,00,11,11.10
2019,06,07,00,12,11.10
2019,06,07,00,13,11.10
2019,06,07,00,14,11.10
2019,06,07,00,15,11.10
2019,06,07,00,16,11.10
2019,06,07,00,17,11.10
2019,06,07,00,18,11.10
2019,06,07,00,19,11.10
2019,06,07,00,20,11.10
2019,06,07,00,21,11.10
2019,06,07,00,22,11.10
2019,06,07,00,23,11.10
2019,06,07,00,24,11.10
2019,06,07,00,25,11.10
2019,06,07,00,26,11.10
2019,06,07,00,27,11.10
2019,06,07,00,28,11.10
2019,06,07,00,29,11.10
2019,06,07,00,30,11.10
2019,06,07,00,33,11.10
2019,06,07,00,34,11.10
2019,06,07,00,35,11.10
2019,06,07,00,37,11.10
2019,06,07,00,38,11.10
2019,06,07,00,39,11.10
2019,06,07,00,41,11.10
2019,06,07,00,43,11.10
2019,06,07,00,44,11.10
2019,06,07,00,45,11.10
2019,06,07,00,46,11.10
2019,06,07,00,47,11.10
2019,06,07,00,48,11.10
2019,06,07,00,49,11.10
2019,06,07,00,51,11.10
2019,06,07,00,52,11.10
2019,06,07,00,53,11.10
2019,06,07,00,54,11.10
2019,06,07,00,56,11.10
2019,06,07,00,58,11.10
2019,06,07,00,59,11.10
2019,06,07,01,01,11.10
2019,06,07,01,02,11.10
2019,06,07,01,03,11.10
2019,06,07,01,04,11.10
2019,06,07,01,06,11.10
2019,06,07,01,07,11.10
2019,06,07,01,08,11.10
2019,06,07,01,09,11.10
2019,06,07,01,11,11.10
2019,06,07,01,13,11.10
2019,06,07,01,14,11.10
2019,06,07,01,16,11.10
2019,06,07,01,17,11.10
2019,06,07,01,18,11.10
2019,06,07,01,19,11.10
2019,06,07,01,21,10.90
2019,06,07,01,22,10.90
2019,06,07,01,23,10.90
2019,06,07,01,24,10.90
2019,06,07,01,26,10.90
2019,06,07,01,27,10.90
2019,06,07,01,28,10.90
2019,06,07,01,29,10.90
2019,06,07,01,31,10.80
2019,06,07,01,32,10.70
2019,06,07,01,33,10.70
2019,06,07,01,34,10.60
2019,06,07,01,36,10.60
2019,06,07,01,37,10.60
2019,06,07,01,38,10.60
2019,06,07,01,39,10.60
2019,06,07,01,41,10.40
2019,06,07,01,42,10.40
2019,06,07,01,43,10.40
2019,06,07,01,44,10.40
2019,06,07,01,46,10.40
2019,06,07,01,47,10.40
2019,06,07,01,48,10.40
2019,06,07,01,49,10.40
2019,06,07,01,51,10.40
2019,06,07,01,52,10.30
2019,06,07,01,53,10.40
2019,06,07,01,54,10.30
2019,06,07,01,56,10.30
2019,06,07,01,57,10.30
2019,06,07,01,58,10.30
2019,06,07,01,59,10.30
2019,06,07,02,01,10.30
2019,06,07,02,02,10.30
2019,06,07,02,03,10.30
2019,06,07,02,04,10.20
2019,06,07,02,06,10.20
2019,06,07,02,07,10.20
2019,06,07,02,08,10.20
2019,06,07,02,09,10.20
2019,06,07,02,11,10.20
2019,06,07,02,12,10.20
2019,06,07,02,13,10.20
2019,06,07,02,14,10.20
2019,06,07,02,16,10.20
2019,06,07,02,17,10.10
2019,06,07,02,18,10.10
2019,06,07,02,19,10.10
2019,06,07,02,21,10.10
2019,06,07,02,22,10.10
2019,06,07,02,23,10.10
2019,06,07,02,24,10.10
2019,06,07,02,26,10.10
2019,06,07,02,27,10.10
2019,06,07,02,28,10.10
2019,06,07,02,29,10.10
2019,06,07,02,31,10.10
2019,06,07,02,32,10.10
2019,06,07,02,33,10.20
2019,06,07,02,34,10.20
2019,06,07,02,36,10.20
2019,06,07,02,37,10.20
2019,06,07,02,38,10.20
2019,06,07,02,39,10.20
2019,06,07,02,41,10.20
2019,06,07,02,42,10.20
2019,06,07,02,43,10.20
2019,06,07,02,44,10.20
2019,06,07,02,46,10.20
2019,06,07,02,47,10.20
2019,06,07,02,48,10.20
2019,06,07,02,49,10.20
2019,06,07,02,51,10.30
2019,06,07,02,52,10.30
2019,06,07,02,53,10.30
2019,06,07,02,54,10.30
2019,06,07,02,55,10.30
2019,06,07,02,56,10.30
2019,06,07,02,57,10.30
2019,06,07,02,58,10.30
2019,06,07,02,59,10.30
2019,06,07,03,01,10.30
2019,06,07,03,02,10.30
2019,06,07,03,03,10.30
2019,06,07,03,04,10.30
2019,06,07,03,06,10.30
2019,06,07,03,07,10.30
2019,06,07,03,08,10.30
2019,06,07,03,09,10.30
2019,06,07,03,10,10.40
2019,06,07,03,11,10.40
2019,06,07,03,12,10.40
2019,06,07,03,13,10.40
2019,06,07,03,14,10.40
2019,06,07,03,15,10.40
2019,06,07,03,16,10.40
2019,06,07,03,17,10.40
2019,06,07,03,18,10.40
2019,06,07,03,19,10.40
2019,06,07,03,21,10.40
2019,06,07,03,22,10.40
2019,06,07,03,23,10.40
2019,06,07,03,24,10.40
2019,06,07,03,26,10.40
2019,06,07,03,27,10.40
2019,06,07,03,28,10.40
2019,06,07,03,29,10.40
2019,06,07,03,31,10.40
2019,06,07,03,32,10.40
2019,06,07,03,33,10.40
2019,06,07,03,34,10.40
2019,06,07,03,35,10.40
2019,06,07,03,36,10.40
2019,06,07,03,37,10.40
2019,06,07,03,38,10.30
2019,06,07,03,39,10.30
2019,06,07,03,40,10.30
2019,06,07,03,41,10.30
2019,06,07,03,42,10.30
2019,06,07,03,43,10.30
2019,06,07,03,44,10.30
2019,06,07,03,45,10.30
2019,06,07,03,46,10.30
2019,06,07,03,47,10.30
2019,06,07,03,48,10.20
2019,06,07,03,49,10.20
2019,06,07,03,50,10.20
2019,06,07,03,51,10.20
2019,06,07,03,52,10.20
2019,06,07,03,53,10.20
2019,06,07,03,54,10.20
2019,06,07,03,55,10.20
2019,06,07,03,56,10.20
2019,06,07,03,57,10.20
2019,06,07,03,58,10.20
2019,06,07,03,59,10.20
2019,06,07,04,00,10.20
2019,06,07,04,01,10.30
2019,06,07,04,02,10.30
2019,06,07,04,03,10.30
2019,06,07,04,04,10.30
2019,06,07,04,06,10.30
2019,06,07,04,07,10.30
2019,06,07,04,08,10.30
2019,06,07,04,09,10.30
2019,06,07,04,10,10.30
2019,06,07,04,11,10.30
2019,06,07,04,12,10.30
2019,06,07,04,13,10.30
2019,06,07,04,14,10.30
2019,06,07,04,15,10.40
2019,06,07,04,16,10.40
2019,06,07,04,17,10.40
2019,06,07,04,18,10.40
2019,06,07,04,19,10.40
2019,06,07,04,20,10.40
2019,06,07,04,21,10.40
2019,06,07,04,22,10.40
2019,06,07,04,23,10.40
2019,06,07,04,24,10.40
2019,06,07,04,25,10.40
2019,06,07,04,26,10.40
2019,06,07,04,27,10.40
2019,06,07,04,28,10.40
2019,06,07,04,29,10.40
2019,06,07,04,30,10.40
2019,06,07,04,31,10.40
2019,06,07,04,32,10.40
2019,06,07,04,33,10.40
2019,06,07,04,34,10.40
2019,06,07,04,35,10.40
2019,06,07,04,36,10.40
2019,06,07,04,37,10.40
2019,06,07,04,38,10.40
2019,06,07,04,39,10.40
2019,06,07,04,40,10.40
2019,06,07,04,41,10.40
2019,06,07,04,42,10.40
2019,06,07,04,43,10.40
2019,06,07,04,44,10.40
2019,06,07,04,45,10.40
2019,06,07,04,46,10.40
2019,06,07,04,47,10.40
2019,06,07,04,48,10.40
2019,06,07,04,49,10.40
2019,06,07,04,50,10.40
2019,06,07,04,51,10.40
2019,06,07,04,52,10.40
2019,06,07,04,53,10.40
2019,06,07,04,54,10.40
2019,06,07,04,55,10.40
2019,06,07,04,56,10.40
2019,06,07,04,57,10.40
2019,06,07,04,58,10.40
2019,06,07,04,59,10.40
2019,06,07,05,00,10.40
2019,06,07,05,01,10.40
2019,06,07,05,02,10.40
2019,06,07,05,03,10.40
2019,06,07,05,04,10.40
2019,06,07,05,05,10.40
2019,06,07,05,06,10.40
2019,06,07,05,07,10.40
2019,06,07,05,08,10.40
2019,06,07,05,09,10.40
2019,06,07,05,10,10.40
2019,06,07,05,11,10.40
2019,06,07,05,12,10.40
2019,06,07,05,13,10.40
2019,06,07,05,14,10.40
2019,06,07,05,15,10.40
2019,06,07,05,16,10.40
2019,06,07,05,17,10.40
2019,06,07,05,18,10.40
2019,06,07,05,19,10.60
2019,06,07,05,20,10.60
2019,06,07,05,21,10.60
2019,06,07,05,22,10.60
2019,06,07,05,23,10.60
2019,06,07,05,24,10.60
2019,06,07,05,25,10.60
2019,06,07,05,26,10.60
2019,06,07,05,27,10.60
2019,06,07,05,29,10.60
2019,06,07,05,30,10.60
2019,06,07,05,32,10.60
2019,06,07,05,33,10.60
2019,06,07,05,34,10.60
2019,06,07,05,35,10.60
2019,06,07,05,36,10.60
2019,06,07,05,37,10.60
2019,06,07,05,38,10.60
2019,06,07,05,39,10.60
2019,06,07,05,40,10.60
2019,06,07,05,41,10.60
2019,06,07,05,42,10.60
2019,06,07,05,43,10.60
2019,06,07,05,44,10.60
2019,06,07,05,45,10.60
2019,06,07,05,46,10.60
2019,06,07,05,47,10.60
2019,06,07,05,48,10.60
2019,06,07,05,49,10.60
2019,06,07,05,50,10.60
2019,06,07,05,51,10.60
2019,06,07,05,52,10.60
2019,06,07,05,53,10.60
2019,06,07,05,54,10.60
2019,06,07,05,55,10.60
2019,06,07,05,56,10.60
2019,06,07,05,57,10.60
2019,06,07,05,58,10.60
2019,06,07,05,59,10.60
2019,06,07,06,00,10.60
2019,06,07,06,02,10.60
2019,06,07,06,03,10.40
2019,06,07,06,04,10.40
2019,06,07,06,06,10.40
2019,06,07,06,08,10.40
2019,06,07,06,09,10.40
2019,06,07,06,11,10.40
2019,06,07,06,13,10.40
2019,06,07,06,14,10.40
2019,06,07,06,15,10.40
2019,06,07,06,16,10.40
2019,06,07,06,18,10.40
2019,06,07,06,19,10.40
2019,06,07,06,20,10.40
2019,06,07,06,22,10.40
2019,06,07,06,23,10.40
2019,06,07,06,24,10.40
2019,06,07,06,26,10.30
2019,06,07,06,28,10.30
2019,06,07,06,29,10.30
2019,06,07,06,30,10.30
2019,06,07,06,32,10.30
2019,06,07,06,33,10.30
2019,06,07,06,34,10.30
2019,06,07,06,36,10.40
2019,06,07,06,37,10.40
2019,06,07,06,38,10.40
2019,06,07,06,39,10.40
2019,06,07,06,41,10.40
2019,06,07,06,42,10.40
2019,06,07,06,43,10.40
2019,06,07,06,44,10.40
2019,06,07,06,46,10.40
2019,06,07,06,47,10.40
2019,06,07,06,48,10.40
2019,06,07,06,49,10.40
2019,06,07,06,51,10.40
2019,06,07,06,52,10.60
2019,06,07,06,53,10.60
2019,06,07,06,54,10.60
2019,06,07,06,56,10.60
2019,06,07,06,57,10.70
2019,06,07,06,58,10.70
2019,06,07,06,59,10.80
2019,06,07,07,01,10.90
2019,06,07,07,02,10.90
2019,06,07,07,03,10.90
2019,06,07,07,04,10.90
2019,06,07,07,06,11.10
2019,06,07,07,07,11.10
2019,06,07,07,08,11.10
2019,06,07,07,09,11.20
2019,06,07,07,11,11.20
2019,06,07,07,12,11.30
2019,06,07,07,13,11.30
2019,06,07,07,14,11.40
2019,06,07,07,16,11.60
2019,06,07,07,17,11.60
2019,06,07,07,18,11.60
2019,06,07,07,19,11.60
2019,06,07,07,21,11.70
2019,06,07,07,22,11.70
2019,06,07,07,23,11.70
2019,06,07,07,24,11.70
2019,06,07,07,26,11.80
2019,06,07,07,27,11.80
2019,06,07,07,28,11.80
2019,06,07,07,29,11.80
2019,06,07,07,31,11.90
2019,06,07,07,32,11.90
2019,06,07,07,33,11.90
2019,06,07,07,34,12.00
2019,06,07,07,36,12.00
2019,06,07,07,37,12.00
2019,06,07,07,38,12.00
2019,06,07,07,39,12.10
2019,06,07,07,41,12.10
2019,06,07,07,42,12.10
2019,06,07,07,43,12.10
2019,06,07,07,44,12.10
2019,06,07,07,46,12.10
2019,06,07,07,47,12.10
2019,06,07,07,48,12.10
2019,06,07,07,49,12.10
2019,06,07,07,51,12.10
2019,06,07,07,52,12.10
2019,06,07,07,53,12.10
2019,06,07,07,54,12.10
2019,06,07,07,56,12.10
2019,06,07,07,57,12.10
2019,06,07,07,58,12.10
2019,06,07,07,59,12.10
2019,06,07,08,01,12.10
2019,06,07,08,02,12.20
2019,06,07,08,03,12.10
2019,06,07,08,04,12.10
2019,06,07,08,06,12.10
2019,06,07,08,07,12.10
2019,06,07,08,08,12.10
2019,06,07,08,09,12.10
2019,06,07,08,11,12.10
2019,06,07,08,12,12.10
2019,06,07,08,13,12.10
2019,06,07,08,14,12.10
2019,06,07,08,16,12.00
2019,06,07,08,17,12.00
2019,06,07,08,18,11.90
2019,06,07,08,19,11.90
2019,06,07,08,21,11.90
2019,06,07,08,22,11.90
2019,06,07,08,23,11.90
2019,06,07,08,24,11.90
2019,06,07,08,26,11.90
2019,06,07,08,27,11.90
2019,06,07,08,28,11.90
2019,06,07,08,29,11.90
2019,06,07,08,31,11.90
2019,06,07,08,32,11.90
2019,06,07,08,33,11.90
2019,06,07,08,34,11.90
2019,06,07,08,36,12.00
2019,06,07,08,37,12.00
2019,06,07,08,38,12.00
2019,06,07,08,39,12.00
2019,06,07,08,41,12.00
2019,06,07,08,42,12.00
2019,06,07,08,43,12.00
2019,06,07,08,44,12.00
2019,06,07,08,45,12.10
2019,06,07,08,46,12.10
2019,06,07,08,47,12.10
2019,06,07,08,48,12.20
2019,06,07,08,49,12.20
2019,06,07,08,50,12.20
2019,06,07,08,51,12.20
2019,06,07,08,52,12.20
2019,06,07,08,53,12.30
2019,06,07,08,54,12.30
2019,06,07,08,55,12.30
2019,06,07,08,56,12.30
2019,06,07,08,57,12.30
2019,06,07,08,58,12.30
2019,06,07,08,59,12.30
2019,06,07,09,01,12.30
2019,06,07,09,02,12.30
2019,06,07,09,03,12.30
2019,06,07,09,04,12.30
2019,06,07,09,29,13.00
2019,06,07,09,30,13.00
2019,06,07,09,31,13.00
2019,06,07,09,32,13.00
2019,06,07,09,33,13.00
2019,06,07,09,34,13.00
2019,06,07,09,35,13.00
2019,06,07,09,36,13.00
2019,06,07,09,37,13.00
2019,06,07,09,38,13.10
2019,06,07,09,39,13.20
2019,06,07,09,40,13.20
2019,06,07,09,41,13.20
2019,06,07,09,42,13.20
2019,06,07,09,43,13.20
2019,06,07,09,44,13.10
2019,06,07,09,45,13.10
2019,06,07,09,46,13.10
2019,06,07,09,47,13.00
2019,06,07,09,48,13.00
2019,06,07,09,49,13.00
2019,06,07,09,50,13.00
2019,06,07,09,51,13.00
2019,06,07,09,52,13.00
2019,06,07,09,53,13.00
2019,06,07,09,54,13.00
2019,06,07,10,29,13.30
2019,06,07,10,30,13.30
2019,06,07,10,31,13.30
2019,06,07,10,32,13.30
2019,06,07,10,33,13.40
2019,06,07,10,34,13.40
2019,06,07,10,35,13.50
2019,06,07,10,36,13.60
2019,06,07,10,37,13.60
2019,06,07,10,38,13.60
2019,06,07,10,39,13.70
2019,06,07,10,40,13.70
2019,06,07,10,41,13.70
2019,06,07,10,42,13.70
2019,06,07,10,43,13.70
2019,06,07,10,44,13.70
2019,06,07,10,45,13.70
2019,06,07,10,46,13.80
2019,06,07,10,47,13.80
2019,06,07,10,48,13.80
2019,06,07,10,49,13.80
2019,06,07,10,50,13.80
2019,06,07,10,51,13.80
2019,06,07,10,52,13.80
2019,06,07,10,53,13.80
2019,06,07,10,54,13.80
2019,06,07,10,55,13.80
2019,06,07,10,56,13.80
2019,06,07,10,57,13.80
2019,06,07,10,58,13.80
2019,06,07,10,59,13.80
2019,06,07,11,00,13.80
2019,06,07,11,01,13.80
2019,06,07,11,02,13.80
2019,06,07,11,03,13.80
2019,06,07,11,04,13.80
2019,06,07,11,05,13.80
2019,06,07,11,06,13.90
2019,06,07,11,07,13.90
2019,06,07,11,08,13.90
2019,06,07,11,09,13.90
2019,06,07,11,10,14.00
2019,06,07,11,11,14.00
2019,06,07,11,12,14.00
2019,06,07,11,13,14.00
2019,06,07,11,14,14.00
2019,06,07,11,15,14.00
2019,06,07,11,16,14.00
2019,06,07,11,17,14.00
2019,06,07,11,18,14.00
2019,06,07,11,19,14.00
2019,06,07,11,20,14.00
2019,06,07,11,21,13.90
2019,06,07,11,22,13.90
2019,06,07,11,23,13.90
2019,06,07,11,24,13.90
2019,06,07,11,25,13.90
2019,06,07,11,26,13.90
2019,06,07,11,27,13.90
2019,06,07,11,28,13.90
2019,06,07,11,29,13.90
2019,06,07,11,30,13.90
2019,06,07,11,31,13.90
2019,06,07,11,32,13.90
2019,06,07,11,33,13.90
2019,06,07,11,34,13.90
2019,06,07,11,35,13.90
2019,06,07,11,36,13.90
2019,06,07,11,37,13.90
2019,06,07,11,38,13.90
2019,06,07,11,39,14.00
2019,06,07,11,40,14.00
2019,06,07,11,41,14.00
2019,06,07,11,42,14.10
2019,06,07,11,43,14.10
2019,06,07,11,44,14.10
2019,06,07,11,45,14.10
2019,06,07,11,46,14.20
2019,06,07,11,47,14.10
2019,06,07,11,48,14.10
2019,06,07,11,49,14.10
2019,06,07,11,50,14.20
2019,06,07,11,52,14.20
2019,06,07,11,53,14.20
2019,06,07,11,54,14.20
2019,06,07,11,56,14.20
2019,06,07,11,57,14.20
2019,06,07,11,58,14.20
2019,06,07,11,59,14.20
2019,06,07,12,00,14.20
2019,06,07,12,02,14.20
2019,06,07,12,03,14.30
2019,06,07,12,04,14.30
2019,06,07,12,06,14.40
2019,06,07,12,07,14.50
2019,06,07,12,08,14.50
2019,06,07,12,09,14.60
2019,06,07,12,11,14.70
2019,06,07,12,13,14.80
2019,06,07,12,14,14.80
2019,06,07,12,15,14.80
2019,06,07,12,16,14.80
2019,06,07,12,18,14.80
2019,06,07,12,19,14.80
2019,06,07,12,21,14.80
2019,06,07,12,22,14.80
2019,06,07,12,24,14.90
2019,06,07,12,26,14.90
2019,06,07,12,27,14.90
2019,06,07,12,29,15.00
2019,06,07,12,30,15.10
2019,06,07,12,32,15.10
2019,06,07,12,33,15.10
2019,06,07,12,34,15.10
2019,06,07,12,36,15.10
2019,06,07,12,37,15.10
2019,06,07,12,38,15.10
2019,06,07,12,39,15.00
2019,06,07,12,41,14.80
2019,06,07,12,42,14.70
2019,06,07,12,43,14.60
2019,06,07,12,44,14.50
2019,06,07,12,46,14.30
2019,06,07,12,47,14.20
2019,06,07,12,48,14.20
2019,06,07,12,49,14.20
2019,06,07,12,51,14.20
2019,06,07,12,52,14.20
2019,06,07,12,53,14.20
2019,06,07,12,54,14.20
2019,06,07,12,56,14.20
2019,06,07,12,57,14.20
2019,06,07,12,58,14.20
2019,06,07,12,59,14.20
2019,06,07,13,01,14.30
2019,06,07,13,02,14.20
2019,06,07,13,03,14.20
2019,06,07,13,04,14.20
2019,06,07,13,06,14.30
2019,06,07,13,07,14.30
2019,06,07,13,08,14.40
2019,06,07,13,09,14.40
2019,06,07,13,11,14.50
2019,06,07,13,12,14.50
2019,06,07,13,13,14.60
2019,06,07,13,14,14.60
2019,06,07,13,16,14.70
2019,06,07,13,17,14.80
2019,06,07,13,18,14.80
2019,06,07,13,19,14.80
2019,06,07,13,21,14.80
2019,06,07,13,22,14.80
2019,06,07,13,23,14.80
2019,06,07,13,24,14.80
2019,06,07,13,26,14.90
2019,06,07,13,27,15.00
2019,06,07,13,28,15.00
2019,06,07,13,29,15.00
2019,06,07,13,31,15.00
2019,06,07,13,32,15.00
2019,06,07,13,33,15.00
2019,06,07,13,34,15.00
2019,06,07,13,36,14.90
2019,06,07,13,37,14.90
2019,06,07,13,38,14.90
2019,06,07,13,39,14.90
2019,06,07,13,41,14.80
2019,06,07,13,42,14.80
2019,06,07,13,43,14.70
2019,06,07,13,44,14.70
2019,06,07,13,46,14.70
2019,06,07,13,47,14.70
2019,06,07,13,48,14.70
2019,06,07,13,49,14.80
2019,06,07,13,51,14.70
2019,06,07,13,52,14.70
2019,06,07,13,53,14.60
2019,06,07,13,54,14.70
2019,06,07,13,56,14.70
2019,06,07,13,57,14.70
2019,06,07,13,58,14.80
2019,06,07,13,59,14.80
2019,06,07,14,01,14.80
2019,06,07,14,02,14.80
2019,06,07,14,03,14.80
2019,06,07,14,04,14.80
2019,06,07,14,06,14.70
2019,06,07,14,07,14.70
2019,06,07,14,08,14.70
2019,06,07,14,09,14.70
2019,06,07,14,11,14.80
2019,06,07,14,12,14.80
2019,06,07,14,13,14.80
2019,06,07,14,14,14.80
2019,06,07,14,16,14.90
2019,06,07,14,17,14.90
2019,06,07,14,18,14.80
2019,06,07,14,19,14.70
2019,06,07,14,21,14.50
2019,06,07,14,22,14.50
2019,06,07,14,23,14.40
2019,06,07,14,24,14.40
2019,06,07,14,26,14.40
2019,06,07,14,27,14.40
2019,06,07,14,28,14.40
2019,06,07,14,29,14.30
2019,06,07,14,31,14.40
2019,06,07,14,32,14.40
2019,06,07,14,33,14.40
2019,06,07,14,34,14.40
2019,06,07,14,36,14.40
2019,06,07,14,37,14.40
2019,06,07,14,38,14.30
2019,06,07,14,39,14.20
2019,06,07,14,41,14.20
2019,06,07,14,42,14.20
2019,06,07,14,43,14.20
2019,06,07,14,44,14.20
2019,06,07,14,46,14.30
2019,06,07,14,47,14.30
2019,06,07,14,48,14.40
2019,06,07,14,49,14.40
2019,06,07,14,51,14.50
2019,06,07,14,52,14.50
2019,06,07,14,53,14.50
2019,06,07,14,54,14.50
2019,06,07,14,55,14.50
2019,06,07,14,56,14.50
2019,06,07,14,57,14.60
2019,06,07,14,58,14.60
2019,06,07,14,59,14.60
2019,06,07,15,01,14.70
2019,06,07,15,02,14.80
2019,06,07,15,03,14.80
2019,06,07,15,04,14.80
2019,06,07,15,06,15.00
2019,06,07,15,07,15.00
2019,06,07,15,08,15.10
2019,06,07,15,09,15.10
2019,06,07,15,10,15.10
2019,06,07,15,11,15.10
2019,06,07,15,12,15.10
2019,06,07,15,13,15.00
2019,06,07,15,14,14.90
2019,06,07,15,15,14.90
2019,06,07,15,16,14.90
2019,06,07,15,17,14.80
2019,06,07,15,18,14.80
2019,06,07,15,19,14.80
2019,06,07,15,20,14.80
2019,06,07,15,21,14.80
2019,06,07,15,22,14.80
2019,06,07,15,23,14.80
2019,06,07,15,24,14.80
2019,06,07,15,25,14.70
2019,06,07,15,26,14.70
2019,06,07,15,27,14.60
2019,06,07,15,28,14.60
2019,06,07,15,29,14.60
2019,06,07,15,30,14.60
2019,06,07,15,31,14.50
2019,06,07,15,32,14.40
2019,06,07,15,33,14.30
2019,06,07,15,34,14.20
2019,06,07,15,35,14.20
2019,06,07,15,36,14.20
2019,06,07,15,37,14.20
2019,06,07,15,38,14.30
2019,06,07,15,39,14.30
2019,06,07,15,40,14.30
2019,06,07,15,41,14.30
2019,06,07,15,42,14.30
2019,06,07,15,43,14.20
2019,06,07,15,44,14.20
2019,06,07,15,45,14.10
2019,06,07,15,46,14.00
2019,06,07,15,47,14.00
2019,06,07,15,48,13.90
2019,06,07,15,49,13.80
2019,06,07,15,50,13.80
2019,06,07,15,51,13.70
2019,06,07,15,52,13.70
2019,06,07,15,53,13.70
2019,06,07,15,54,13.70
2019,06,07,15,57,13.60
2019,06,07,15,58,13.60
2019,06,07,15,59,13.60
2019,06,07,16,00,13.50
2019,06,07,16,01,13.50
2019,06,07,16,02,13.40
2019,06,07,16,03,13.40
2019,06,07,16,04,13.30
2019,06,07,16,05,13.30
2019,06,07,16,06,13.30
2019,06,07,16,07,13.30
2019,06,07,16,08,13.20
2019,06,07,16,09,13.20
2019,06,07,16,10,13.20
2019,06,07,16,11,13.20
2019,06,07,16,12,13.20
2019,06,07,16,13,13.20
2019,06,07,16,14,13.20
2019,06,07,16,15,13.20
2019,06,07,16,16,13.30
2019,06,07,16,17,13.30
2019,06,07,16,18,13.30
2019,06,07,16,19,13.30
2019,06,07,16,20,13.40
2019,06,07,16,21,13.50
2019,06,07,16,22,13.60
2019,06,07,16,23,13.70
2019,06,07,16,24,13.70
2019,06,07,16,25,13.80
2019,06,07,16,26,13.90
2019,06,07,16,27,14.00
2019,06,07,16,28,14.00
2019,06,07,16,29,14.10
2019,06,07,16,30,14.20
2019,06,07,16,31,14.20
2019,06,07,16,32,14.30
2019,06,07,16,33,14.40
2019,06,07,16,34,14.50
2019,06,07,16,35,14.60
2019,06,07,16,36,14.70
2019,06,07,16,37,14.80
2019,06,07,16,38,14.80
2019,06,07,16,39,14.80
2019,06,07,16,40,14.80
2019,06,07,16,41,14.80
2019,06,07,16,42,14.80
2019,06,07,16,43,14.90
2019,06,07,16,44,14.80
2019,06,07,16,46,14.80
2019,06,07,16,47,14.80
2019,06,07,16,49,14.80
2019,06,07,16,50,14.80
2019,06,07,16,52,14.60
2019,06,07,16,53,14.60
2019,06,07,16,54,14.50
2019,06,07,16,55,14.50
2019,06,07,16,56,14.40
2019,06,07,16,57,14.50
2019,06,07,16,58,14.60
2019,06,07,16,59,14.60
2019,06,07,17,00,14.70
2019,06,07,17,02,14.80
2019,06,07,17,03,14.90
2019,06,07,17,04,14.90
2019,06,07,17,06,14.80
2019,06,07,17,07,14.80
2019,06,07,17,08,14.70
2019,06,07,17,09,14.60
2019,06,07,17,11,14.40
2019,06,07,17,13,14.20
2019,06,07,17,14,14.20
2019,06,07,17,15,14.20
2019,06,07,17,16,14.20
2019,06,07,17,18,14.10
2019,06,07,17,19,14.00
2019,06,07,17,21,13.90
2019,06,07,17,22,13.80
2019,06,07,17,23,13.80
2019,06,07,17,24,13.80
2019,06,07,17,26,13.80
2019,06,07,17,28,13.90
2019,06,07,17,29,14.00
2019,06,07,17,31,14.10
2019,06,07,17,32,14.20
2019,06,07,17,33,14.30
2019,06,07,17,34,14.50
2019,06,07,17,36,14.80
2019,06,07,17,37,15.00
2019,06,07,17,38,15.20
2019,06,07,17,39,15.30
2019,06,07,17,41,15.60
2019,06,07,17,42,15.80
2019,06,07,17,43,15.80
2019,06,07,17,44,16.10
2019,06,07,17,46,16.30
2019,06,07,17,47,16.30
2019,06,07,17,48,16.40
2019,06,07,17,49,16.60
2019,06,07,17,51,16.70
2019,06,07,17,52,16.80
2019,06,07,17,53,16.90
2019,06,07,17,54,16.90
2019,06,07,17,56,17.00
2019,06,07,17,57,17.00
2019,06,07,17,58,17.00
2019,06,07,17,59,16.90
2019,06,07,18,01,16.90
2019,06,07,18,02,16.80
2019,06,07,18,03,16.70
2019,06,07,18,04,16.70
2019,06,07,18,06,16.70
2019,06,07,18,07,16.70
2019,06,07,18,08,16.70
2019,06,07,18,09,16.70
2019,06,07,18,11,16.70
2019,06,07,18,12,16.70
2019,06,07,18,13,16.70
2019,06,07,18,14,16.70
2019,06,07,18,16,16.70
2019,06,07,18,17,16.70
2019,06,07,18,18,16.70
2019,06,07,18,19,16.70
2019,06,07,18,21,16.70
2019,06,07,18,22,16.70
2019,06,07,18,23,16.70
2019,06,07,18,24,16.70
2019,06,07,18,26,16.40
2019,06,07,18,27,16.40
2019,06,07,18,28,16.30
2019,06,07,18,29,16.30
2019,06,07,18,30,16.20
2019,06,07,18,32,16.30
2019,06,07,18,33,16.30
2019,06,07,18,34,16.30
2019,06,07,18,36,16.40
2019,06,07,18,37,16.40
2019,06,07,18,38,16.40
2019,06,07,18,39,16.40
2019,06,07,18,41,16.40
2019,06,07,18,42,16.40
2019,06,07,18,43,16.40
2019,06,07,18,44,16.30
2019,06,07,18,46,16.30
2019,06,07,18,47,16.30
2019,06,07,18,48,16.20
2019,06,07,18,49,16.20
2019,06,07,18,51,16.20
2019,06,07,18,52,16.10
2019,06,07,18,53,16.10
2019,06,07,18,54,16.10
2019,06,07,18,56,16.10
2019,06,07,18,57,16.10
2019,06,07,18,58,16.10
2019,06,07,18,59,16.10
2019,06,07,19,01,16.10
2019,06,07,19,02,16.10
2019,06,07,19,03,16.20
2019,06,07,19,04,16.20
2019,06,07,19,06,16.30
2019,06,07,19,07,16.40
2019,06,07,19,08,16.40
2019,06,07,19,09,16.40
2019,06,07,19,11,16.60
2019,06,07,19,12,16.60
2019,06,07,19,13,16.60
2019,06,07,19,14,16.60
2019,06,07,19,16,16.70
2019,06,07,19,17,16.70
2019,06,07,19,18,16.70
2019,06,07,19,19,16.70
2019,06,07,19,21,16.70
2019,06,07,19,22,16.70
2019,06,07,19,23,16.70
2019,06,07,19,24,16.80
2019,06,07,19,26,16.70
2019,06,07,19,27,16.70
2019,06,07,19,28,16.70
2019,06,07,19,29,16.70
2019,06,07,19,31,16.70
2019,06,07,19,32,16.70
2019,06,07,19,33,16.70
2019,06,07,19,34,16.70
2019,06,07,19,36,16.70
2019,06,07,19,37,16.70
2019,06,07,19,38,16.60
2019,06,07,19,39,16.40
2019,06,07,19,41,16.40
2019,06,07,19,42,16.30
2019,06,07,19,43,16.20
2019,06,07,19,44,16.10
2019,06,07,19,45,16.10
2019,06,07,19,46,15.90
2019,06,07,19,47,15.80
2019,06,07,19,48,15.70
2019,06,07,19,49,15.60
2019,06,07,19,51,15.50
2019,06,07,19,52,15.40
2019,06,07,19,53,15.30
2019,06,07,19,54,15.30
2019,06,07,19,55,15.20
2019,06,07,19,56,15.20
2019,06,07,19,57,15.10
2019,06,07,19,58,15.10
2019,06,07,19,59,15.10
2019,06,07,20,00,15.00
2019,06,07,20,01,15.00
2019,06,07,20,02,14.90
2019,06,07,20,03,14.90
2019,06,07,20,04,14.90
2019,06,07,20,06,14.80
2019,06,07,20,07,14.80
2019,06,07,20,08,14.80
2019,06,07,20,09,14.80
2019,06,07,20,11,14.80
2019,06,07,20,12,14.70
2019,06,07,20,13,14.70
2019,06,07,20,14,14.70
2019,06,07,20,15,14.70
2019,06,07,20,16,14.70
2019,06,07,20,17,14.60
2019,06,07,20,18,14.60
2019,06,07,20,19,14.60
2019,06,07,20,20,14.60
2019,06,07,20,21,14.50
2019,06,07,20,22,14.50
2019,06,07,20,23,14.50
2019,06,07,20,24,14.50
2019,06,07,20,25,14.50
2019,06,07,20,26,14.40
2019,06,07,20,27,14.40
2019,06,07,20,28,14.40
2019,06,07,20,29,14.40
2019,06,07,20,30,14.30
2019,06,07,20,31,14.30
2019,06,07,20,32,14.30
2019,06,07,20,33,14.30
2019,06,07,20,34,14.20
2019,06,07,20,36,14.20
2019,06,07,20,37,14.20
2019,06,07,20,38,14.20
2019,06,07,20,39,14.20
2019,06,07,20,40,14.20
2019,06,07,20,41,14.20
2019,06,07,20,42,14.20
2019,06,07,20,43,14.10
2019,06,07,20,44,14.10
2019,06,07,20,45,14.10
2019,06,07,20,46,14.10
2019,06,07,20,47,14.00
2019,06,07,20,48,14.00
2019,06,07,20,49,14.00
2019,06,07,20,50,14.00
2019,06,07,20,51,14.00
2019,06,07,20,52,13.90
2019,06,07,20,53,13.90
2019,06,07,20,54,13.90
2019,06,07,20,55,13.90
2019,06,07,20,56,13.90
2019,06,07,20,57,13.80
2019,06,07,20,58,13.80
2019,06,07,20,59,13.80
2019,06,07,21,00,13.80